Tracking 19903 objects as of 16-Oct-2019
HD Live streaming from Space Station
objects crossing your sky now

COSMOS 1275 DEB

Track COSMOS 1275 DEB now!
10-day predictions


NORAD ID: 13815
Int'l Code: 1981-053HN
Perigee: 903.0 km
Apogee: 1,076.3 km
Inclination: 83.0 °
Period: 104.7 minutes
Semi major axis: 7360 km
RCS: 0.0181 m2 (small)
Launch date: June 4, 1981
Source: Commonwealth of Independent States (former USSR) (CIS)
Launch site: PLESETSK MISSILE AND SPACE COMPLEX (PKMTR)

Note: This is SATELLITE DEBRIS
aabbcc
Your satellite tracking list
Your tracking list is empty




NASA's NSSDC Master Catalog

Two Line Element Set (TLE):
1 13815U 81053HK  19288.89638729 +.00000652 +00000-0 +63603-3 0  9999
2 13815 083.0315 224.4178 0117716 070.6606 351.3820 13.74756136834062
Source of the keplerian elements: AFSPC